Powrót do katalogu

CZ-6A DEB

AktywnyPO
NORAD 61367·DEBRIS·🇨🇳 China

Wystrzelony Aug 6, 2024 z Taiyuan Satellite Launch Center

Loading…

Następne Przeloty (najbliższe 24 godziny)

TLE

ŚwieżeSource: Space-Track

Epoka: Sep 14, 2026, 05:26 UTC

1 61367U 24140WG  26257.22669608  .00000396  00000-0  16394-3 0  9999
2 61367  88.7707 243.3304 0027665 207.3479 152.6259 14.24458140105312

Śledź CZ-6A DEB w czasie rzeczywistym z AllMySat

Download on the App Store